Weather History for St. Joseph, MO

Change the Weather History Date:

Friday, March 14, 2014

  Actual Average Record
Temperature  
Mean Temperature 48 °F 42 °F  
Max Temperature 62 °F 54 °F 83 °F (2012)
Min Temperature 33 °F 31 °F 2 °F (1975)
Degree Days  
Heating Degree Days 17 23  
Month to date heating degree days 446 360  
Since 1 July heating degree days 5386 4668  
Cooling Degree Days 0 0  
Month to date cooling degree days 0 0  
Year to date cooling degree days 0 0  
Moisture  
Dew Point 25 °F    
Average Humidity 46    
Maximum Humidity 70    
Minimum Humidity 22    
Precipitation  
Precipitation 0.00 in 0.07 in 0.87 in (1944)
Month to date precipitation 0.27 0.84  
Year to date precipitation 1.09 2.33  
Sea Level Pressure  
Sea Level Pressure 29.88 in    
Wind  
Wind Speed 12 mph (West)    
Max Wind Speed 24 mph    
Max Gust Speed 31 mph    
Visibility 10 miles    
Events      
T = Trace of Precipitation, MM = Missing Value Source: NWS Daily Summary

Daily Weather History Graph

Daily Weather History Graph

Search for Another Location

Airport:

Trip Planner

Search our weather history database for the weather conditions in past years. The results will help you decide how hot, cold, wet, or windy it might be!

Date:

Astronomy

Mar. 14, 2014 Rise Set
Actual Time 7:32 AM CDT 7:25 PM CDT
Civil Twilight 7:05 AM CDT 7:52 PM CDT
Nautical Twilight 6:34 AM CDT 8:23 PM CDT
Astronomical Twilight 6:02 AM CDT 8:55 PM CDT
Moon 5:48 PM CDT (3/14) 6:12 AM CDT (3/14)
Length of Visible Light 12h 46m
Length of Day
11h 52m
Waxing Gibbous, 96% of the Moon is Illuminated
Mar 14
Waxing Gibbous
Mar 16
Full
Mar 23
Last Quarter
Mar 30
New
Apr 7
First Quarter

Hourly Weather History & Observations

Time (CDT) Temp. Windchill Dew Point Humidity Pressure Visibility Wind Dir Wind Speed Gust Speed Precip Events Conditions
12:53 AM 50.0 °F - 24.1 °F 36% 29.76 in 10.0 mi SSW 13.8 mph - N/A   Clear
1:53 AM 51.1 °F - 24.1 °F 35% 29.74 in 10.0 mi SSW 13.8 mph - N/A   Clear
2:53 AM 52.0 °F - 23.0 °F 32% 29.71 in 10.0 mi South 18.4 mph 25.3 mph N/A   Clear
3:53 AM 51.1 °F - 24.1 °F 35% 29.69 in 10.0 mi SSW 16.1 mph - N/A   Clear
4:53 AM 51.1 °F - 24.1 °F 35% 29.68 in 10.0 mi SW 18.4 mph - N/A   Clear
5:53 AM 48.0 °F - 24.1 °F 39% 29.74 in 10.0 mi SW 5.8 mph - N/A   Clear
6:53 AM 45.0 °F 39.3 °F 25.0 °F 46% 29.77 in 10.0 mi WSW 11.5 mph - N/A   Clear
7:53 AM 43.0 °F - 24.1 °F 47% 29.80 in 10.0 mi Calm Calm - N/A   Clear
8:53 AM 45.0 °F 39.3 °F 27.0 °F 49% 29.85 in 10.0 mi NW 11.5 mph - N/A   Clear
9:53 AM 48.9 °F - 28.9 °F 46% 29.90 in 10.0 mi NNW 16.1 mph - N/A   Clear
10:53 AM 54.0 °F - 28.9 °F 38% 29.91 in 10.0 mi North 15.0 mph - N/A   Clear
11:53 AM 57.0 °F - 30.0 °F 36% 29.93 in 10.0 mi NNW 19.6 mph - N/A   Clear
12:53 PM 57.9 °F - 28.9 °F 33% 29.94 in 10.0 mi NNW 20.7 mph 28.8 mph N/A   Clear
1:53 PM 60.1 °F - 27.0 °F 28% 29.93 in 10.0 mi WNW 17.3 mph 25.3 mph N/A   Clear
2:53 PM 61.0 °F - 21.9 °F 22% 29.93 in 10.0 mi NW 19.6 mph 31.1 mph N/A   Clear
3:53 PM 61.0 °F - 21.9 °F 22% 29.94 in 10.0 mi WNW 20.7 mph 29.9 mph N/A   Clear
4:53 PM 61.0 °F - 21.0 °F 21% 29.94 in 10.0 mi NW 15.0 mph 24.2 mph N/A   Clear
5:53 PM 61.0 °F - 21.9 °F 22% 29.93 in 10.0 mi NW 13.8 mph - N/A   Clear
6:53 PM 55.9 °F - 23.0 °F 28% 29.95 in 10.0 mi WNW 8.1 mph - N/A   Clear
7:53 PM 46.9 °F - 24.1 °F 41% 29.98 in 10.0 mi WNW 4.6 mph - N/A   Clear
8:53 PM 44.1 °F - 23.0 °F 43% 29.99 in 10.0 mi Calm Calm - N/A   Clear
9:53 PM 42.1 °F 40.2 °F 28.0 °F 58% 30.00 in 10.0 mi SSE 3.5 mph - N/A   Clear
10:53 PM 37.9 °F 35.5 °F 28.9 °F 70% 30.01 in 10.0 mi SW 3.5 mph - N/A   Clear
11:53 PM 37.0 °F 33.3 °F 28.9 °F 73% 30.01 in 10.0 mi SSW 4.6 mph - N/A   Clear